Regional Weather Roundup
Issued by NWS

Home | Current Version | Previous Version | Graphics & Text | Print | Product List | Glossary On
Versions: 1 2 3 4 5 6 7 8 9 10 11 12 13 14 15 16 17 18 19 20 21 22 23 24 25 26 27 28 29 30 31 32 33 34 35 36 37 38 39 40 41 42 43 44 45 46 47 48 49 50
000
ASUS45 KBOU 131610
RWRCO

WEATHER ROUNDUP FOR COLORADO
NATIONAL WEATHER SERVICE DENVER/BOULDER CO
1000 AM MDT SUN JUL 13 2014

NOTE: "FAIR" INDICATES FEW OR NO CLOUDS BELOW 12000 FEET WITH NO
SIGNIFICANT WEATHER AND/OR OBSTRUCTIONS TO VISIBILITY.

COZ001>005-013-030-031-131700-
...NORTHWEST COLORADO...

CITY           SKY/WX    TMP DP  RH WIND       PRES   REMARKS
CRAIG          SUNNY     67  55  65 VRB3      30.37F
HAYDEN         SUNNY     72  46  40 E3        30.39S
MEEKER         SUNNY     70  51  51 CALM      30.37F
MOUNT WERNER   NOT AVBL
STEAMBOAT SPGS SUNNY     68  48  49 CALM      30.40F
WALDEN         SUNNY     61  45  55 CALM      30.50S
$$

COZ006>008-011-131700-
...WEST CENTRAL VALLEYS...

CITY           SKY/WX    TMP DP  RH WIND       PRES   REMARKS
GRAND JUNCTION SUNNY     83  51  33 E9        30.24F
MONTROSE       SUNNY     79  49  34 E6        30.32F
EAGLE          MOSUNNY   70  54  56 CALM      30.41F
RIFLE          SUNNY     76  52  43 VRB3      30.30F
DELTA          SUNNY     80  52  37 NE6       30.28F
NUCLA          SUNNY     79  45  29 N5        30.35F
$$

COZ017>023-064>068-131700-
...SOUTHWEST COLORADO...

CITY           SKY/WX    TMP DP  RH WIND       PRES   REMARKS
DURANGO        SUNNY     74  48  39 E8        30.40S
CORTEZ         SUNNY     80  49  33 CALM      30.32S
PAGOSA SPRINGS SUNNY     73  45  37 S5        30.47F
TELLURIDE      SUNNY     68  46  45 CALM      30.55F
WOLF CREEK PAS NOT AVBL
$$

COZ009-010-012-014-032>034-037-058>063-131700-
...CENTRAL COLORADO...

CITY           SKY/WX    TMP DP  RH WIND       PRES   REMARKS
ASPEN          SUNNY     70  50  49 VRB5      30.45F
BUENA VISTA    SUNNY     64  51  62 NE3       30.49F
COPPER MTN     SUNNY     59  43  55 W14G21    30.77S
BERTHOUD PASS  FAIR      48  34  57 N5        30.82S
COTTONWOOD PAS SUNNY     63  48  59 CALM      30.62S
GUNNISON       SUNNY     63  50  63 CALM      30.51S
KREMMLING      SUNNY     64  48  55 CALM      30.47F
LEADVILLE      SUNNY     56  50  80 SE3       30.60F
SALIDA         SUNNY     69  51  53 CALM      30.53F
SUNLIGHT       SUNNY     61  50  67 CALM      30.70S
WILKERSON PASS PTSUNNY   52  46  82 CALM      30.74S
$$

COZ069>075-131700-
...SAN LUIS VALLEY/SANGRE DE CRISTO MOUNTAINS...

CITY           SKY/WX    TMP DP  RH WIND       PRES   REMARKS
ALAMOSA        SUNNY     69  49  48 VRB3      30.45F
LA VETA PASS   MOSUNNY   59  50  72 NE5       30.64F
SAGUACHE       NOT AVBL
$$

COZ035-036-038>040-131700-
...NORTHERN COLORADO FRONT RANGE...

CITY           SKY/WX    TMP DP  RH WIND       PRES   REMARKS
DENVER INTL AP MOSUNNY   74  58  57 CALM      30.34S
DMNS CITY PARK   N/A     76  57  50 NE1       30.33S
AURORA         PTSUNNY   71  59  65 N3        30.36S
FRONT RANGE AP NOT AVBL
ERIE MUNI ARPT SUNNY     74  58  57 NE6       30.32S
BOULDER MUN AP SUNNY     73  55  53 N6        30.33S
CENTENNIAL     PTSUNNY   73  54  51 CALM      30.36S
BROOMFIELD     NOT AVBL
FORT COLLINS   SUNNY     73  61  64 NE3       30.33S
LONGMONT       SUNNY     76  58  52 NE5       30.33F
$$

COZ041-046-047-076>085-087-088-131700-
...PIKES PEAK/PALMER DIVIDE AND SOUTHERN FOOTHILLS...

CITY           SKY/WX    TMP DP  RH WIND       PRES   REMARKS
COLO. SPRINGS  PTSUNNY   74  55  51 CALM      30.38F
A. F. ACADEMY  SUNNY     72  54  54 VRB3      30.40S
ELLICOTT       SUNNY     73  54  51 VRB5      30.37S
FALCON         SUNNY     72  50  44 NE8       30.44R
FORT CARSON    SUNNY     74  57  56 VRB3      30.36S
LIMON          MOSUNNY   75  59  57 N12       30.34R
MONUMENT HILL  SUNNY     68  48  49 N5        30.43S
TRINIDAD       CLOUDY    71  59  65 S3        30.37S
$$

COZ042>045-048>051-090-091-131700-
...NORTHEAST COLORADO...

CITY           SKY/WX    TMP DP  RH WIND       PRES   REMARKS
GREELEY ARPT   NOT AVBL
AKRON          SUNNY     75  58  55 NW6       30.30F
BURLINGTON     MOSUNNY   78  60  53 E10G18    30.28R
WRAY           PTSUNNY   82  62  51 CALM      30.24S
STERLING       SUNNY     79  66  65 NE3       30.26S
HOLYOKE        SUNNY     81  61  50 W3        30.25S
FORT MORGAN    SUNNY     77  59  52 SE3       30.30S
$$

COZ086-089-092>099-131700-
...SOUTHEAST COLORADO...

CITY           SKY/WX    TMP DP  RH WIND       PRES   REMARKS
PUEBLO         SUNNY     76  59  55 VRB3      30.30S
LA JUNTA       PTSUNNY   75  63  66 NW6       30.27S
LAMAR          CLOUDY    75  63  66 S9        30.24S
SPRINGFIELD      N/A     74  60  61 CALM      30.28F
$$


USA.gov is the U.S. government's official web portal to all federal, state and local government web resources and services.